WT9M-8 Weather Reports


Display with metric or nautical units.
time (UTC)temp
F
wind
direction
speed
MPH
gust
MPH
rain 1hr
in
rain 24hr
in
rain mn
in
humidity
%
barometer
mb
20260502164035 61 240 5.0 9.0 0.00 0.00 0.00 41 1017.3
20260502163031 60 225 5.0 11.0 0.00 0.00 0.00 41 1017.3
20260502162025 62 260 5.0 14.0 0.00 0.00 0.00 42 1017.5
20260502161021 61 238 6.0 14.0 0.00 0.00 0.00 40 1017.6
20260502152017 58 270 6.0 13.0 0.00 0.00 0.00 43 1018.0
20260502151034 58 276 4.0 10.0 0.00 0.00 0.00 47 1018.0
20260502123035 34 0.0 0.0 0.00 0.00 0.00 84 1019.0
20260502122031 33 0.0 0.0 0.00 0.00 0.00 84 1019.0
20260502121027 33 0.0 0.0 0.00 0.00 0.00 84 1019.1
20260502115018 31 0.0 0.0 0.00 0.00 0.00 83 1019.1
20260502114033 31 0.0 0.0 0.00 0.00 0.00 83 1018.9
20260502113028 30 0.0 0.0 0.00 0.00 0.00 83 1018.9
20260502112024 30 0.0 0.0 0.00 0.00 0.00 83 1018.8
20260502111039 29 0.0 0.0 0.00 0.00 0.00 83 1018.8
20260502110034 29 0.0 0.0 0.00 0.00 0.00 83 1018.8
20260502105030 28 0.0 0.0 0.00 0.00 0.00 83 1018.9
20260502104026 28 0.0 0.0 0.00 0.00 0.00 82 1018.9
20260502103021 28 0.0 0.0 0.00 0.00 0.00 82 1018.8
20260502102037 29 0.0 0.0 0.00 0.00 0.00 82 1018.7
20260502101031 29 0.0 0.0 0.00 0.00 0.00 82 1018.7
20260502091026 29 0.0 0.0 0.00 0.00 0.00 81 1018.8
20260502071052 27 0.0 0.0 0.00 0.00 0.00 80 1018.9
20260502070028 26 0.0 0.0 0.00 0.00 0.00 80 1018.9
20260502065024 26 0.0 0.0 0.00 0.00 0.00 79 1019.0
20260502064018 26 0.0 0.0 0.00 0.00 0.00 79 1018.9
20260502063035 27 0.0 0.0 0.00 0.00 0.00 79 1018.9
20260502062029 27 0.0 0.0 0.00 0.00 0.00 78 1018.8
20260502061025 27 0.0 0.0 0.00 0.00 0.00 78 1018.9
20260502060019 28 0.0 0.0 0.00 0.00 0.00 78 1018.7
20260502055035 28 79 1.0 2.0 0.00 0.00 0.00 79 1018.8
20260502054031 28 79 1.0 2.0 0.00 0.00 0.00 78 1018.7
20260502053026 28 79 1.0 1.0 0.00 0.00 0.00 77 1018.8
20260502052041 28 79 1.0 1.0 0.00 0.00 0.00 77 1018.9
20260502051016 28 0.0 0.0 0.00 0.00 0.00 76 1018.8
20260502050053 29 79 1.0 2.0 0.00 0.00 0.00 76 1018.7
20260502045027 29 79 0.0 2.0 0.00 0.00 0.00 76 1018.6
20260502044022 29 0.0 0.0 0.00 0.00 0.00 75 1018.7
20260502043017 30 0.0 0.0 0.00 0.00 0.00 74 1018.7
20260502042053 30 79 0.0 1.0 0.00 0.00 0.00 74 1018.6
20260502041128 30 79 0.0 1.0 0.00 0.00 0.00 74 1018.5
20260502040023 31 79 1.0 1.0 0.00 0.00 0.00 75 1018.6
20260502035018 31 78 2.0 2.0 0.00 0.00 0.00 75 1018.4
20260502034034 32 81 1.0 2.0 0.00 0.00 0.00 73 1018.5
20260502033030 32 75 2.0 3.0 0.00 0.00 0.00 72 1018.4
20260502032025 33 83 1.0 2.0 0.00 0.00 0.00 72 1018.4
20260502031020 33 89 1.0 2.0 0.00 0.00 0.00 69 1018.3
20260502030036 34 90 1.0 2.0 0.00 0.00 0.00 69 1018.3
20260502025051 35 90 1.0 2.0 0.00 0.00 0.00 70 1018.2
20260502024026 35 92 2.0 3.0 0.00 0.00 0.00 71 1018.1
20260502023021 36 84 3.0 3.0 0.00 0.00 0.00 68 1018.0
20260502022018 37 81 2.0 3.0 0.00 0.00 0.00 65 1018.0
20260502021033 38 94 2.0 2.0 0.00 0.00 0.00 61 1017.8
20260502020028 40 90 2.0 3.0 0.00 0.00 0.00 60 1017.7
20260502015023 41 81 2.0 3.0 0.00 0.00 0.00 57 1017.6
20260502014019 43 69 1.0 1.0 0.00 0.00 0.00 54 1017.6
20260502013034 44 87 1.0 2.0 0.00 0.00 0.00 52 1017.5
20260502012030 45 84 1.0 2.0 0.00 0.00 0.00 49 1017.4
20260502011025 46 137 0.0 1.0 0.00 0.00 0.00 46 1017.4
20260502010020 47 119 0.0 1.0 0.00 0.00 0.00 44 1017.3
20260502005016 48 70 2.0 4.0 0.00 0.00 0.00 43 1017.3
20260502004031 49 126 1.0 4.0 0.00 0.00 0.00 43 1017.1
20260502003027 50 234 1.0 2.0 0.00 0.00 0.00 41 1016.8
20260502002022 51 237 1.0 3.0 0.00 0.00 0.00 40 1016.8
20260502001018 53 254 2.0 7.0 0.00 0.00 0.00 39 1016.8
20260502000034 54 235 1.0 3.0 0.00 0.00 0.00 38 1016.7
20260501235029 55 258 3.0 6.0 0.00 0.00 0.00 36 1016.6
20260501234025 56 120 3.0 6.0 0.00 0.00 0.00 36 1016.7
20260501233019 57 274 2.0 6.0 0.00 0.00 0.00 37 1016.6
20260501232055 57 277 4.0 10.0 0.00 0.00 0.00 37 1016.6
20260501231030 57 252 2.0 4.0 0.00 0.00 0.00 36 1016.6
20260501230026 59 289 3.0 8.0 0.00 0.00 0.00 35 1016.6
20260501225020 60 320 4.0 10.0 0.00 0.00 0.00 34 1016.5
20260501224035 61 225 3.0 6.0 0.00 0.00 0.00 37 1016.4
20260501223030 59 273 4.0 10.0 0.00 0.00 0.00 38 1016.4
20260501222026 57 242 1.0 4.0 0.00 0.00 0.00 39 1016.5
20260501221021 57 262 2.0 4.0 0.00 0.00 0.00 38 1016.6
20260501220017 58 271 3.0 9.0 0.00 0.00 0.00 36 1016.5
20260501215052 60 269 2.0 7.0 0.00 0.00 0.00 35 1016.2
20260501214027 64 267 4.0 10.0 0.00 0.00 0.00 34 1016.2
20260501213023 63 262 4.0 10.0 0.00 0.00 0.00 38 1016.3
20260501212018 58 290 4.0 9.0 0.00 0.00 0.00 39 1016.2
20260501211033 56 273 2.0 7.0 0.00 0.00 0.00 38 1016.3
20260501210029 56 280 4.0 9.0 0.00 0.00 0.00 39 1016.3
20260501205024 57 265 2.0 4.0 0.00 0.00 0.00 37 1016.4
20260501204020 59 272 3.0 10.0 0.00 0.00 0.00 37 1016.4
20260501203035 61 257 2.0 9.0 0.00 0.00 0.00 35 1016.5
20260501202031 62 276 4.0 10.0 0.00 0.00 0.00 34 1016.4
20260501201026 66 312 3.0 8.0 0.00 0.00 0.00 34 1016.4
20260501200022 64 270 4.0 10.0 0.00 0.00 0.00 36 1016.4
20260501195017 61 265 3.0 9.0 0.00 0.00 0.00 39 1016.4
20260501194033 61 261 3.0 7.0 0.00 0.00 0.00 37 1016.4
20260501193028 60 284 4.0 10.0 0.00 0.00 0.00 39 1016.4
20260501192023 59 282 3.0 8.0 0.00 0.00 0.00 39 1016.4
20260501191018 61 253 5.0 10.0 0.00 0.00 0.00 38 1016.3
20260501190034 60 267 5.0 11.0 0.00 0.00 0.00 40 1016.5
20260501185029 59 278 4.0 7.0 0.00 0.00 0.00 41 1016.3
20260501184024 57 256 4.0 9.0 0.00 0.00 0.00 41 1016.3
20260501183018 59 260 4.0 8.0 0.00 0.00 0.00 40 1016.3
20260501182034 60 262 5.0 10.0 0.00 0.00 0.00 42 1016.3
20260501181028 58 266 4.0 11.0 0.00 0.00 0.00 41 1016.3
20260501180023 59 248 3.0 7.0 0.00 0.00 0.00 40 1016.5